[[{"header":{"parameterUnit":"m.s-1","parameterCategory":1,"la1":30.2991,"la2":30.254,"lo1":-89.0895,"lo2":-89.0444,"dy":0.0017,"dx":0.0017,"nx":28,"ny":28,"refTime":"2023-07-26T03:00:00:Z","depth":0,"parameterNumber":2,"parameterNumberName":"U-component_of_WINDS"},"data":[0,0,0,0,0,0,0,0,0,0,0,0,0,0,0,0,0,0,0,0,0,0,0,0,0,0,0,0,0,0,0,0,0,0,0,0,0,0,0,0,0,0,0,0,0,0,0,0,0,0,0,0,0,0,0,0,0,0,-0.3795,-0.3794,0,-0.3618,-0.3616,-0.3614,-0.3528,-0.3528,-0.3528,-0.3528,-0.3342,-0.3337,-0.3332,0,0,0,0,0,0,0,0,0,0,0,0,0,-0.4058,-0.4054,-0.3796,-0.3793,-0.3791,-0.3618,-0.3616,-0.3613,-0.3528,-0.3528,-0.3528,-0.3528,-0.3343,-0.3338,-0.3332,0,0,0,0,0,0,0,0,0,0,0,0,0,-0.3919,-0.4052,-0.3796,-0.3728,-0.372,-0.3619,-0.3616,-0.3613,-0.3528,-0.3528,-0.3528,-0.3528,-0.3345,-0.3338,-0.3331,-0.3282,0,0,-0.3308,-0.3304,0,0,0,0,0,0,0,0,-0.3927,-0.3909,-0.374,-0.3732,-0.3723,-0.3595,-0.364,-0.3502,-0.3528,-0.3601,-0.3528,-0.3528,-0.3426,-0.3412,-0.3378,-0.3274,-0.3266,-0.3307,-0.3302,-0.3299,-0.3297,0,0,0,0,0,0,0,-0.3936,-0.3916,-0.3725,-0.3738,-0.3728,-0.3705,-0.3686,-0.3613,-0.3515,-0.3594,-0.3588,-0.3568,-0.3421,-0.3385,-0.3373,-0.3263,-0.3307,-0.3301,-0.3296,-0.3293,-0.3111,-0.3111,0,0,0,0,0,0,-0.3958,-0.3925,-0.3731,-0.372,-0.3828,-0.3701,-0.3678,-0.3636,-0.3515,-0.3497,-0.3568,-0.3565,-0.3398,-0.3382,-0.3366,-0.3302,-0.3299,-0.3292,-0.3288,-0.3112,-0.3111,-0.3111,0,0,0,0,0,0,-0.3964,-0.3941,-0.3738,-0.382,-0.3793,-0.3696,-0.3649,-0.3633,-0.3597,-0.3496,-0.3477,-0.355,-0.3398,-0.3377,-0.3304,-0.3295,-0.3289,-0.3282,-0.3112,-0.3112,-0.3111,-0.3174,0,0,0,0,0,0,-0.3972,-0.3944,-0.3925,-0.3821,-0.3789,-0.368,-0.3649,-0.3629,-0.3585,-0.3578,-0.3474,-0.3456,-0.3396,-0.3316,-0.3297,-0.3284,-0.3276,-0.3112,-0.3112,-0.3111,-0.3173,-0.3176,-0.3179,0,0,0,0,0,-0.3981,-0.3949,-0.3925,-0.3902,-0.3764,-0.368,-0.3662,-0.3594,-0.3584,-0.3564,-0.35,-0.346,-0.3299,-0.331,-0.3287,-0.3272,-0.3113,-0.3112,-0.3111,-0.3171,-0.3175,-0.3179,0,0,0,0,0,0,-0.4052,-0.3934,-0.3906,-0.3838,-0.377,-0.3666,-0.3638,-0.3601,-0.3532,-0.3529,-0.3447,-0.3424,-0.336,-0.3308,-0.3322,-0.3219,-0.3202,-0.3197,-0.3255,-0.3258,-0.3262,-0.3275,-0.327,0,0,0,0,0,-0.406,-0.4004,-0.3902,-0.3853,-0.382,-0.3736,-0.3697,-0.3651,-0.3576,-0.3546,-0.3476,-0.3404,-0.3338,-0.3295,-0.3228,-0.3165,-0.3141,-0.3144,-0.3147,-0.315,-0.3146,-0.311,-0.311,-0.3109,-0.3109,-0.3109,0,0,-0.4076,-0.4004,-0.3973,-0.3866,-0.3807,-0.375,-0.3712,-0.3652,-0.3608,-0.3537,-0.3465,-0.3411,-0.3325,-0.3258,-0.3225,-0.3213,-0.3142,-0.3149,-0.3152,-0.3147,-0.3109,-0.311,-0.311,-0.3108,-0.3108,-0.3108,0,0,-0.4075,-0.4015,-0.3968,-0.3911,-0.3824,-0.3768,-0.3757,-0.3658,-0.3621,-0.3548,-0.3494,-0.344,-0.3327,-0.3268,-0.3224,-0.3203,-0.3164,-0.3184,-0.32,-0.3166,-0.3166,-0.3165,-0.3159,-0.3157,-0.318,-0.3181,-0.3181,0,-0.4104,-0.4016,-0.3948,-0.3891,-0.3846,-0.3782,-0.3733,-0.368,-0.3576,-0.3545,-0.3535,-0.3392,-0.333,-0.3249,-0.3244,-0.321,-0.3195,-0.3195,-0.3172,-0.3171,-0.3169,-0.3162,-0.3159,-0.3184,-0.3183,-0.3183,-0.3183,0,-0.4058,-0.3998,-0.397,-0.3873,-0.3824,-0.3772,-0.3695,-0.3654,-0.3613,-0.3558,-0.3485,-0.3409,-0.3326,-0.3303,-0.3262,-0.3216,-0.3212,-0.3188,-0.3168,-0.3174,-0.3165,-0.3162,-0.3188,-0.3187,-0.3186,-0.3185,0,0,-0.4094,-0.3962,-0.3953,-0.3908,-0.3809,-0.376,-0.3706,-0.3626,-0.3593,-0.3523,-0.3475,-0.3382,-0.336,-0.331,-0.3261,-0.3231,-0.3221,-0.321,-0.3207,-0.3215,-0.3167,-0.3186,-0.3184,-0.3195,-0.3194,-0.3194,-0.3174,0,-0.4079,-0.3979,-0.3917,-0.3842,-0.3786,-0.3725,-0.3677,-0.3611,-0.3559,-0.3503,-0.3445,-0.3381,-0.3355,-0.3325,-0.3293,-0.3229,-0.321,-0.323,-0.3149,-0.3147,-0.3172,-0.3179,-0.3198,-0.3183,-0.317,-0.317,-0.3169,0,-0.4047,-0.3982,-0.3902,-0.3811,-0.3785,-0.3743,-0.3666,-0.3614,-0.3538,-0.3502,-0.3448,-0.3399,-0.3339,-0.3326,-0.3241,-0.3256,-0.322,-0.3184,-0.3181,-0.3171,-0.3158,-0.3168,-0.3177,-0.3175,-0.3163,-0.3164,-0.3164,0,-0.4083,-0.3974,-0.3913,-0.3877,-0.3768,-0.3741,-0.3694,-0.3618,-0.3575,-0.3507,-0.3479,-0.3405,-0.3364,-0.3308,-0.3241,-0.3238,-0.3163,-0.3144,-0.3131,-0.3133,-0.3117,-0.3119,-0.312,-0.3095,-0.3095,-0.3095,-0.3095,0,-0.4072,-0.4025,-0.3927,-0.3889,-0.3836,-0.3765,-0.3713,-0.3661,-0.3595,-0.3545,-0.3488,-0.3442,-0.3357,-0.3301,-0.3249,-0.3187,-0.3169,-0.3138,-0.3124,-0.3143,-0.3147,-0.3117,-0.3116,-0.3094,-0.3095,-0.3095,-0.3095,0,-0.4101,-0.4034,-0.3963,-0.3867,-0.3842,-0.3807,-0.3724,-0.3685,-0.3631,-0.357,-0.3551,-0.3466,-0.3397,-0.3326,-0.3232,-0.3197,-0.3137,-0.3118,-0.3164,-0.3156,-0.3147,-0.3149,-0.3128,-0.3122,-0.3102,-0.3102,-0.3103,0,-0.4099,-0.4062,-0.3963,-0.3927,-0.3882,-0.3824,-0.3781,-0.371,-0.3667,-0.3579,-0.355,-0.3478,-0.3416,-0.331,-0.3239,-0.3167,-0.3146,-0.3144,-0.3135,-0.3155,-0.3146,-0.3149,-0.3145,-0.3147,-0.3148,-0.3148,-0.3148,0,-0.4101,-0.407,-0.4011,-0.394,-0.389,-0.3831,-0.3769,-0.3742,-0.3659,-0.3613,-0.3544,-0.3496,-0.3403,-0.3331,-0.3252,-0.3203,-0.3162,-0.3152,-0.3145,-0.3164,-0.3191,-0.3177,-0.3172,-0.3153,-0.3152,-0.3152,-0.3152,-0.3151,-0.4114,-0.4079,-0.4005,-0.3941,-0.3888,-0.3832,-0.3791,-0.3733,-0.3674,-0.3593,-0.3555,-0.3486,-0.3411,-0.3301,-0.3253,-0.3197,-0.3185,-0.3175,-0.3172,-0.3171,-0.3176,-0.3202,-0.3182,-0.3182,-0.3182,-0.3182,-0.3182,0,-0.4114,-0.4064,-0.4006,-0.3922,-0.3872,-0.384,-0.3771,-0.373,-0.3671,-0.3606,-0.3547,-0.3468,-0.34,-0.3325,-0.3252,-0.3221,-0.3201,-0.3205,-0.3206,-0.3195,-0.3191,-0.3204,-0.3223,-0.3223,-0.3223,-0.3223,-0.3223,-0.3223,-0.4108,-0.4047,-0.4008,-0.3921,-0.3871,-0.3804,-0.3767,-0.3715,-0.3663,-0.3578,-0.3522,-0.3474,-0.3405,-0.3327,-0.3263,-0.3242,-0.3218,-0.3227,-0.3202,-0.3199,-0.3195,-0.3192,-0.3204,-0.3223,-0.3223,-0.321,-0.321,-0.321]},{"header":{"parameterUnit":"m.s-1","parameterCategory":1,"la1":30.2991,"la2":30.254,"lo1":-89.0895,"lo2":-89.0444,"dy":0.0017,"dx":0.0017,"nx":28,"ny":28,"refTime":"2023-07-26T03:00:00:Z","depth":0,"parameterNumber":3,"parameterNumberName":"V-component_of_WINDS"},"data":[0,0,0,0,0,0,0,0,0,0,0,0,0,0,0,0,0,0,0,0,0,0,0,0,0,0,0,0,0,0,0,0,0,0,0,0,0,0,0,0,0,0,0,0,0,0,0,0,0,0,0,0,0,0,0,0,0,0,2.8003,2.8003,0,2.7947,2.7946,2.7945,2.7975,2.7977,2.7978,2.798,2.7913,2.791,2.7907,0,0,0,0,0,0,0,0,0,0,0,0,0,2.8129,2.8127,2.8003,2.8003,2.8002,2.7947,2.7946,2.7945,2.7975,2.7977,2.7979,2.7981,2.7914,2.7911,2.7907,0,0,0,0,0,0,0,0,0,0,0,0,0,2.8074,2.8126,2.8003,2.801,2.8011,2.7947,2.7946,2.7945,2.7975,2.7977,2.7979,2.7982,2.7916,2.7911,2.7906,2.783,0,0,2.7891,2.7889,0,0,0,0,0,0,0,0,2.8077,2.8069,2.801,2.801,2.801,2.7971,2.7966,2.7906,2.7974,2.7988,2.798,2.7983,2.793,2.7924,2.7908,2.7827,2.7824,2.7891,2.7888,2.7886,2.7885,0,0,0,0,0,0,0,2.8081,2.8071,2.7981,2.8009,2.8009,2.8014,2.8008,2.7955,2.7946,2.7987,2.7989,2.7982,2.793,2.7913,2.7907,2.7823,2.7891,2.7887,2.7884,2.7882,2.7673,2.7671,0,0,0,0,0,0,2.8085,2.8074,2.7982,2.7979,2.805,2.801,2.8004,2.7981,2.7947,2.7944,2.798,2.7984,2.792,2.7912,2.7904,2.7811,2.7886,2.7881,2.7879,2.7676,2.7673,2.767,0,0,0,0,0,0,2.8088,2.8077,2.7985,2.8027,2.8016,2.8005,2.7979,2.7978,2.7961,2.7942,2.794,2.7965,2.7921,2.7911,2.7848,2.7809,2.7879,2.7875,2.7679,2.7675,2.7671,2.7624,0,0,0,0,0,0,2.8091,2.8077,2.805,2.8027,2.8014,2.7932,2.7977,2.7976,2.7953,2.7958,2.7927,2.7924,2.7922,2.7855,2.7843,2.7804,2.7871,2.7683,2.7677,2.7673,2.7629,2.7619,2.761,0,0,0,0,0,2.8096,2.8038,2.8049,2.8037,2.798,2.793,2.7922,2.7924,2.795,2.7921,2.7909,2.7925,2.7816,2.7849,2.7835,2.7794,2.7685,2.7679,2.7673,2.7633,2.7621,2.7611,0,0,0,0,0,0,2.8054,2.8035,2.8047,2.798,2.7957,2.7935,2.7898,2.7911,2.7877,2.7882,2.7884,2.7876,2.781,2.7796,2.7833,2.7717,2.7754,2.7745,2.7728,2.7716,2.7707,2.7711,2.7867,0,0,0,0,0,2.8038,2.8001,2.7985,2.7928,2.7916,2.7909,2.7887,2.7891,2.7866,2.7855,2.7838,2.781,2.777,2.7743,2.7705,2.7628,2.762,2.7593,2.7584,2.7576,2.7567,2.7523,2.751,2.765,2.7651,2.7651,0,0,2.8002,2.7987,2.7963,2.7919,2.7901,2.786,2.79,2.7856,2.7824,2.7847,2.7787,2.7774,2.7743,2.7672,2.764,2.7658,2.7527,2.7568,2.7563,2.7558,2.7516,2.7502,2.749,2.7646,2.7647,2.7648,0,0,2.7916,2.7903,2.7852,2.7834,2.7808,2.7804,2.7792,2.7769,2.7761,2.7702,2.7718,2.7679,2.761,2.7587,2.7566,2.7472,2.7483,2.7459,2.7409,2.7366,2.7355,2.7345,2.7308,2.7296,2.7451,2.7451,2.7451,0,2.7874,2.7816,2.7824,2.7778,2.7757,2.7779,2.7726,2.7708,2.7669,2.7652,2.7674,2.7587,2.7568,2.7491,2.7468,2.7452,2.7435,2.7461,2.7357,2.7347,2.7337,2.7302,2.7289,2.7448,2.7448,2.7449,2.7449,0,2.7765,2.7724,2.7686,2.7651,2.7626,2.7577,2.7574,2.7547,2.7554,2.7547,2.7484,2.7462,2.7419,2.7402,2.7407,2.7325,2.7336,2.7358,2.7394,2.7321,2.7288,2.7275,2.7444,2.7445,2.7446,2.7446,0,0,2.7649,2.762,2.7605,2.7589,2.7562,2.7529,2.748,2.7441,2.7416,2.7389,2.7345,2.7287,2.7306,2.7282,2.7285,2.7248,2.7171,2.7273,2.7272,2.7252,2.7076,2.7058,2.7043,2.718,2.7178,2.7176,2.7077,0,2.7559,2.7476,2.7482,2.7402,2.7363,2.7384,2.7341,2.7318,2.731,2.7273,2.7264,2.7221,2.7251,2.7237,2.7201,2.7188,2.7135,2.7195,2.7136,2.7134,2.714,2.7026,2.7007,2.6916,2.7065,2.7063,2.7061,0,2.7442,2.7414,2.7331,2.7309,2.7293,2.7254,2.7218,2.7184,2.7157,2.7154,2.7128,2.7137,2.7084,2.7125,2.705,2.7091,2.7067,2.7057,2.7054,2.7045,2.7091,2.7011,2.6887,2.6872,2.7042,2.7043,2.7045,0,2.7362,2.7303,2.7245,2.7231,2.7205,2.7177,2.7164,2.714,2.7116,2.7083,2.7067,2.7028,2.7006,2.6974,2.6971,2.7001,2.6894,2.6936,2.6887,2.6887,2.6861,2.6862,2.6727,2.6851,2.6851,2.6851,2.6851,0,2.726,2.7207,2.7209,2.7173,2.7114,2.7121,2.7061,2.7051,2.703,2.699,2.7006,2.6967,2.6967,2.6927,2.6924,2.6861,2.6851,2.6845,2.6844,2.6841,2.6842,2.6823,2.6828,2.6847,2.6848,2.6849,2.685,0,2.7159,2.7159,2.7097,2.7078,2.7072,2.7029,2.7011,2.6975,2.697,2.6919,2.6907,2.6897,2.6851,2.6846,2.6791,2.6789,2.6712,2.672,2.6722,2.6722,2.6672,2.6676,2.6518,2.6497,2.6637,2.6636,2.6635,0,2.7092,2.7052,2.703,2.7006,2.6992,2.6953,2.6929,2.6933,2.6907,2.6874,2.6841,2.6797,2.6762,2.6687,2.6672,2.663,2.6635,2.6583,2.6628,2.6626,2.663,2.6631,2.6626,2.6572,2.6571,2.657,2.6569,0,2.6972,2.6974,2.694,2.6905,2.6877,2.6849,2.6823,2.6802,2.6803,2.6772,2.6726,2.6699,2.6645,2.6599,2.6558,2.6542,2.6553,2.6555,2.6541,2.6536,2.6538,2.6533,2.6694,2.6558,2.6559,2.656,2.656,2.6561,2.6884,2.6849,2.6828,2.6789,2.6771,2.6746,2.6711,2.6703,2.6666,2.6623,2.6628,2.6576,2.6549,2.6495,2.6476,2.6434,2.6451,2.6431,2.6425,2.6419,2.6413,2.6548,2.6427,2.6427,2.6427,2.6427,2.6428,0,2.6762,2.675,2.6714,2.6679,2.6647,2.6666,2.6638,2.661,2.6565,2.6541,2.6506,2.6453,2.6409,2.6392,2.6349,2.6318,2.6322,2.6306,2.6306,2.6302,2.6402,2.6417,2.6303,2.6303,2.6303,2.6303,2.6303,2.6303,2.6695,2.6636,2.6636,2.6567,2.6555,2.6507,2.6489,2.6465,2.6446,2.6386,2.6351,2.6342,2.6319,2.6274,2.6234,2.623,2.6211,2.6192,2.6189,2.6283,2.6295,2.6307,2.6321,2.6189,2.6188,2.6092,2.6092,2.6091]}]]